Location: Killarney Provincial Park Observatory
(46.0124°N, 81.4000°W)
Time: 11:31:40
(UTC-04:00)

Iridium 22 - Visible Passes

Search period start: 21 April 2014 00:00
Search period end: 01 May 2014 00:00
Orbit: 776 x 779 km, 86.4° (Epoch: 20 April)

Date Brightness Start Highest point End Pass type
(mag) Time Alt. Az. Time Alt. Az. Time Alt. Az.
21 Apr 7.1 01:16:41 10° NNW 01:20:09 28° WNW 01:20:09 28° WNW visible
21 Apr 7.1 23:02:47 10° NNE 23:06:22 21° ENE 23:06:22 21° ENE visible
22 Apr 6.4 00:42:45 10° NNW 00:46:51 45° NW 00:46:51 45° NW visible
22 Apr 7.6 22:30:39 10° NE 22:32:49 12° ENE 22:33:04 12° ENE visible
23 Apr 5.8 00:09:05 10° N 00:13:33 66° N 00:13:33 66° N visible
23 Apr 7.9 01:52:14 10° NW 01:54:02 12° WNW 01:54:02 12° WNW visible
23 Apr 6.0 23:35:39 10° N 23:40:15 49° ENE 23:40:15 49° ENE visible
24 Apr 7.4 01:17:12 10° NNW 01:20:44 21° WNW 01:20:44 21° WNW visible
24 Apr 6.6 23:02:28 10° NNE 23:06:58 30° ENE 23:06:58 30° ENE visible
25 Apr 6.6 00:43:02 10° NNW 00:47:27 36° WNW 00:47:27 36° WNW visible
25 Apr 7.2 22:29:43 10° NNE 22:33:09 17° ENE 22:33:41 17° E visible
26 Apr 5.7 00:09:13 10° N 00:14:10 64° WNW 00:14:10 64° WNW visible
26 Apr 5.4 23:35:38 10° N 23:40:52 72° E 23:40:53 72° E visible
27 Apr 7.7 01:17:59 10° NW 01:20:56 15° WNW 01:21:22 15° W visible
27 Apr 6.0 23:02:17 10° N 23:07:13 41° E 23:07:37 40° E visible
28 Apr 7.0 00:43:26 10° NNW 00:47:43 27° W 00:48:06 26° W visible
28 Apr 6.8 22:29:14 10° NNE 22:33:26 24° ENE 22:34:21 23° E visible
29 Apr 6.2 00:09:25 10° NNW 00:14:23 46° W 00:14:50 45° WSW visible
29 Apr 7.4 21:56:49 10° NE 21:59:31 14° ENE 22:01:06 13° E visible
29 Apr 5.4 23:35:42 10° N 23:40:56 81° W 23:41:35 68° SSW visible
30 Apr 8.0 01:19:36 10° WNW 01:20:44 11° WNW 01:21:52 10° W visible
30 Apr 5.6 23:02:12 10° N 23:07:22 58° E 23:08:20 49° SE visible
